Comisión Nacional del Agua
Subdirección General Técnica
Estación: Aristeo Mercado
Clave: AMEMC
Estado: Michoacán de Ocampo
Municipio: Jiménez

Fecha, Elevación(msnm), Almacenamiento(hm³), Area(ha), Extracciones por Obra de Toma(m³/s), Extracciones por Vertedor(m³/s), Evaporación(mm), Precipitación(mm)
1994/01/01,1991.730,-,-,0.000,0.000,5.00,0.10
1994/01/02,1991.710,-,-,0.000,0.000,5.00,0.10
1994/01/03,1991.690,-,-,0.000,0.000,5.00,0.10
1994/01/04,1991.670,-,-,0.000,0.000,5.00,0.00
1994/01/05,1991.650,-,-,0.000,0.000,5.00,0.00
1994/01/06,1991.620,-,-,0.000,0.000,5.00,0.00
1994/01/07,1991.610,-,-,0.000,0.000,5.00,0.00
1994/01/08,1991.590,-,-,0.000,0.000,5.00,0.00
1994/01/09,1991.570,-,-,0.000,0.000,5.95,0.00
1994/01/10,1991.550,-,-,0.000,0.000,5.50,0.00
1994/01/11,1991.550,-,-,0.000,0.000,9.40,0.00
1994/01/12,1991.510,-,-,0.000,0.000,5.25,0.00
1994/01/13,1991.500,-,-,0.000,0.000,6.25,0.00
1994/01/14,1991.490,-,-,0.000,0.000,6.80,0.00
1994/01/15,1991.470,-,-,0.000,0.000,6.05,0.00
1994/01/16,1991.460,-,-,0.000,0.000,4.50,0.10
1994/01/17,1991.440,-,-,0.000,0.000,5.30,3.00
1994/01/18,1991.430,-,-,0.000,0.000,4.10,0.10
1994/01/19,1991.410,-,-,0.000,0.000,5.10,0.10
1994/01/20,1991.400,-,-,0.000,0.000,5.00,0.00
1994/01/21,1991.390,-,-,0.000,0.000,4.55,0.00
1994/01/22,1991.370,-,-,0.000,0.000,5.25,0.00
1994/01/23,1991.360,-,-,0.000,0.000,5.50,0.10
1994/01/24,1991.340,-,-,0.000,0.000,5.50,0.10
1994/01/25,1991.330,-,-,0.000,0.000,6.05,0.10
1994/01/26,1991.310,-,-,0.000,0.000,6.85,1.00
1994/01/27,1991.290,-,-,0.000,0.000,6.10,0.10
1994/01/28,1991.280,-,-,0.000,0.000,5.70,0.00
1994/01/29,1991.270,-,-,0.000,0.000,5.70,0.10
1994/01/30,1991.250,-,-,0.000,0.000,6.15,0.10
1994/01/31,-,-,-,-,-,-,0.10
1994/02/01,1992.800,-,-,0.000,0.000,5.30,0.10
1994/02/02,1992.770,-,-,0.000,0.000,4.20,0.10
1994/02/03,1992.720,-,-,0.000,0.000,5.20,0.10
1994/02/04,1992.680,-,-,0.000,0.000,4.55,0.10
1994/02/05,1992.640,-,-,0.000,0.000,5.85,0.10
1994/02/06,1992.590,-,-,0.000,0.000,5.70,0.10
1994/02/07,1992.550,-,-,0.000,0.000,5.40,0.10
1994/02/08,1992.510,-,-,0.000,0.000,4.30,0.10
1994/02/09,1992.470,-,-,0.000,0.000,5.30,0.10
1994/02/10,1992.430,-,-,0.000,0.000,4.45,0.10
1994/02/11,1992.390,-,-,0.000,0.000,5.35,0.00
1994/02/12,1992.360,-,-,0.000,0.000,5.55,0.10
1994/02/13,1992.320,-,-,0.000,0.000,5.50,0.10
1994/02/14,1992.290,-,-,0.000,0.000,5.80,0.10
1994/02/15,1992.260,-,-,0.000,0.000,8.10,0.10
1994/02/16,1992.210,-,-,0.000,0.000,8.40,0.10
1994/02/17,1992.170,-,-,0.000,0.000,6.35,0.10
1994/02/18,1992.130,-,-,0.000,0.000,6.40,0.10
1994/02/19,1992.100,-,-,0.000,0.000,4.50,0.00
1994/02/20,1992.060,-,-,0.000,0.000,5.15,0.10
1994/02/21,1992.020,-,-,0.000,0.000,5.15,0.10
1994/02/22,1991.980,-,-,0.000,0.000,7.45,0.10
1994/02/23,1991.950,-,-,0.000,0.000,5.85,0.10
1994/02/24,1991.920,-,-,0.000,0.000,4.70,0.10
1994/02/25,1991.900,-,-,0.000,0.000,5.40,0.10
1994/02/26,1991.880,-,-,0.000,0.000,5.15,0.10
1994/02/27,1991.860,-,-,0.000,0.000,6.80,0.10
1994/02/28,1991.840,-,-,0.000,0.000,4.90,0.10
1994/03/01,1991.810,-,-,0.000,0.000,4.35,0.10
1994/03/02,1993.230,-,-,0.000,0.000,4.20,0.10
1994/03/03,1993.230,-,-,0.000,0.000,3.30,0.10
1994/03/04,1993.230,-,-,0.000,0.000,3.25,0.10
1994/03/05,1993.210,-,-,0.000,0.000,3.45,0.10
1994/03/06,1993.200,-,-,0.000,0.000,4.35,0.10
1994/03/07,1993.190,-,-,0.000,0.000,4.10,0.10
1994/03/08,1993.180,-,-,0.000,0.000,4.62,0.10
1994/03/09,1993.170,-,-,0.000,0.000,3.85,0.10
1994/03/10,1993.160,-,-,0.000,0.000,3.85,0.10
1994/03/11,1993.150,-,-,0.000,0.000,3.80,0.10
1994/03/12,1993.140,-,-,0.000,0.000,4.45,0.10
1994/03/13,1993.120,-,-,0.000,0.000,4.95,0.10
1994/03/14,1993.110,-,-,0.000,0.000,4.55,0.10
1994/03/15,1993.090,-,-,0.000,0.000,3.16,0.10
1994/03/16,1993.070,-,-,0.000,0.000,6.64,0.10
1994/03/17,1993.060,-,-,0.000,0.000,4.60,0.10
1994/03/18,1993.050,-,-,0.000,0.000,3.21,0.10
1994/03/19,1993.030,-,-,0.000,0.000,3.99,0.10
1994/03/20,1993.020,-,-,0.000,0.000,4.00,0.10
1994/03/21,1993.000,-,-,0.000,0.000,4.95,0.10
1994/03/22,1992.980,-,-,0.000,0.000,4.35,0.10
1994/03/23,1992.960,-,-,0.000,0.000,5.10,0.10
1994/03/24,1992.940,-,-,0.000,0.000,4.70,0.00
1994/03/25,1992.920,-,-,0.000,0.000,5.10,0.00
1994/03/26,1992.880,-,-,0.000,0.000,4.50,0.00
1994/03/27,1992.850,-,-,0.000,0.000,6.35,0.00
1994/03/28,1992.820,-,-,0.000,0.000,6.30,0.00
1994/03/29,1992.800,-,-,0.000,0.000,5.30,0.00
1994/03/30,-,-,-,0.000,0.000,-,0.00
1994/03/31,-,-,-,-,-,-,0.00
1994/04/01,1993.350,-,-,0.000,0.000,3.60,0.10
1994/04/02,1993.350,-,-,0.000,0.000,3.65,0.10
1994/04/03,1993.340,-,-,0.000,0.000,3.55,0.10
1994/04/04,1993.340,-,-,0.000,0.000,3.05,0.10
1994/04/05,1993.340,-,-,0.000,0.000,2.60,0.10
1994/04/06,1993.330,-,-,0.000,0.000,3.25,0.10
1994/04/07,1993.330,-,-,0.000,0.000,3.00,0.10
1994/04/08,1993.330,-,-,0.000,0.000,3.25,0.10
1994/04/09,1993.320,-,-,0.000,0.000,3.40,3.50
1994/04/10,1993.320,-,-,0.000,0.000,5.55,2.00
1994/04/11,1993.320,-,-,0.000,0.000,3.45,0.10
1994/04/12,1993.320,-,-,0.000,0.000,3.25,0.10
1994/04/13,1993.310,-,-,0.000,0.000,3.10,0.10
1994/04/14,1993.310,-,-,0.000,0.000,3.50,0.10
1994/04/15,1993.310,-,-,0.000,0.000,3.85,0.10
1994/04/16,1993.300,-,-,0.000,0.000,3.10,0.10
1994/04/17,1993.300,-,-,0.000,0.000,3.10,0.10
1994/04/18,1993.300,-,-,0.000,0.000,3.90,0.10
1994/04/19,1993.290,-,-,0.000,0.000,2.10,0.10
1994/04/20,1993.290,-,-,0.000,0.000,4.15,0.10
1994/04/21,1991.390,-,-,0.000,0.000,4.55,0.10
1994/04/22,1991.370,-,-,0.000,0.000,5.25,0.10
1994/04/23,1991.360,-,-,0.000,0.000,5.50,0.10
1994/04/24,1991.340,-,-,0.000,0.000,5.50,0.10
1994/04/25,1991.330,-,-,0.000,0.000,6.05,0.10
1994/04/26,1991.310,-,-,0.000,0.000,6.85,0.10
1994/04/27,1991.290,-,-,0.050,0.000,6.10,0.10
1994/04/28,1991.280,-,-,0.000,0.000,5.70,0.10
1994/04/29,1991.270,-,-,0.000,0.000,5.70,0.10
1994/04/30,1991.250,-,-,0.000,0.000,6.15,0.10
1994/05/01,1991.240,-,-,0.000,0.000,6.95,0.10
1994/05/02,1991.230,-,-,0.000,0.000,6.65,0.10
1994/05/03,1991.220,-,-,0.000,0.000,7.80,0.10
1994/05/04,1991.210,-,-,0.000,0.000,6.35,0.10
1994/05/05,-,-,-,-,-,-,0.10
1994/05/06,-,-,-,-,-,-,0.10
1994/05/07,1991.200,-,-,6.150,0.000,-,0.10
1994/05/08,1991.200,-,-,0.000,0.000,7.20,0.10
1994/05/09,1991.190,-,-,0.000,0.000,6.30,0.10
1994/05/10,1991.190,-,-,0.000,0.000,6.55,0.10
1994/05/11,1991.180,-,-,0.000,0.000,5.25,0.10
1994/05/12,1991.180,-,-,0.000,0.000,6.10,1.00
1994/05/13,1991.180,-,-,0.000,0.000,5.88,0.10
1994/05/14,1991.180,-,-,0.000,0.000,6.12,0.10
1994/05/15,1991.170,-,-,0.000,0.000,5.05,0.10
1994/05/16,1991.170,-,-,0.000,0.000,5.25,0.10
1994/05/17,1991.160,-,-,0.000,0.000,6.47,0.10
1994/05/18,1991.160,-,-,0.000,0.000,5.68,2.00
1994/05/19,1991.160,-,-,0.000,0.000,8.70,2.00
1994/05/20,1991.150,-,-,0.000,0.000,7.10,0.10
1994/05/21,-,-,-,-,-,-,0.10
1994/05/22,-,-,-,-,-,-,0.10
1994/05/23,-,-,-,-,-,-,0.10
1994/05/24,-,-,-,-,-,-,0.10
1994/05/25,1991.130,-,-,0.000,0.000,5.95,0.10
1994/05/26,1991.130,-,-,0.000,0.000,8.80,1.00
1994/05/27,1991.120,-,-,0.000,0.000,6.85,0.10
1994/05/28,1991.120,-,-,0.000,0.000,5.15,6.50
1994/05/29,1991.110,-,-,0.000,0.000,5.26,0.10
1994/05/30,1991.110,-,-,0.000,0.000,6.20,0.10
1994/05/31,1991.110,-,-,0.000,0.000,7.75,0.10
1994/06/01,1991.100,-,-,0.000,0.000,7.30,0.10
1994/06/02,1991.100,-,-,0.000,0.000,8.35,0.10
1994/06/03,-,-,-,-,-,-,0.10
1994/06/04,1991.090,-,-,0.000,0.000,6.25,21.00
1994/06/05,1991.090,-,-,0.000,0.000,6.60,0.10
1994/06/06,1991.090,-,-,0.000,0.000,6.00,0.10
1994/06/07,1991.080,-,-,0.000,0.000,5.30,0.10
1994/06/08,1991.080,-,-,0.000,0.000,6.20,3.00
1994/06/09,1991.080,-,-,0.000,0.000,6.55,0.10
1994/06/10,1991.070,-,-,0.000,0.000,6.90,0.10
1994/06/11,1991.090,-,-,0.000,0.000,5.60,33.00
1994/06/12,1991.110,-,-,0.000,0.000,7.40,50.00
1994/06/13,1991.150,-,-,0.000,0.000,6.30,12.00
1994/06/14,1991.170,-,-,0.000,0.000,3.35,8.00
1994/06/15,1991.180,-,-,0.000,0.000,6.15,0.10
1994/06/16,1991.180,-,-,0.000,0.000,5.75,0.10
1994/06/17,1991.190,-,-,0.000,0.000,4.70,8.00
1994/06/18,1991.190,-,-,0.000,0.000,8.90,0.10
1994/06/19,1991.190,-,-,0.000,0.000,4.20,8.30
1994/06/20,1991.250,-,-,0.000,0.000,5.25,0.10
1994/06/21,1991.280,-,-,0.000,0.000,1.04,0.10
1994/06/22,1991.350,-,-,0.000,0.000,4.15,2.00
1994/06/23,1991.370,-,-,0.000,0.000,4.55,2.50
1994/06/24,1991.400,-,-,0.000,0.000,3.85,4.50
1994/06/25,1991.410,-,-,0.000,0.000,3.15,6.00
1994/06/26,1991.410,-,-,0.000,0.000,3.15,0.10
1994/06/27,1991.410,-,-,0.000,0.000,5.10,13.00
1994/06/28,1991.430,-,-,0.000,0.000,4.10,9.50
1994/06/29,1991.470,-,-,0.000,0.000,4.65,0.10
1994/06/30,1991.470,-,-,0.000,0.000,5.10,0.10
1994/07/01,1991.770,-,-,0.000,0.000,5.50,0.10
1994/07/02,1991.470,-,-,0.000,0.000,4.92,2.00
1994/07/03,1991.480,-,-,0.000,0.000,4.53,0.10
1994/07/04,1991.480,-,-,0.000,0.000,5.85,1.20
1994/07/05,1991.480,-,-,0.000,0.000,-,15.00
1994/07/06,1991.470,-,-,0.000,0.000,-,0.10
1994/07/07,1991.470,-,-,0.000,0.000,5.60,0.10
1994/07/08,1991.470,-,-,0.000,0.000,5.50,16.00
1994/07/09,1991.470,-,-,0.000,0.000,-,0.10
1994/07/10,1991.480,-,-,0.000,0.000,-,6.00
1994/07/11,1991.480,-,-,0.000,0.000,-,0.10
1994/07/12,1991.480,-,-,0.000,0.000,-,5.50
1994/07/13,1991.480,-,-,0.000,0.000,5.40,9.50
1994/07/14,1991.490,-,-,0.000,0.000,4.30,24.00
1994/07/15,1991.490,-,-,0.000,0.000,6.75,18.00
1994/07/16,1991.510,-,-,0.000,0.000,9.45,0.10
1994/07/17,1991.510,-,-,0.000,0.000,5.85,8.50
1994/07/18,1991.510,-,-,0.000,0.000,3.81,0.10
1994/07/19,1991.510,-,-,0.000,0.000,3.03,0.10
1994/07/20,1991.500,-,-,0.000,0.000,3.24,0.10
1994/07/21,1991.490,-,-,0.000,0.000,2.83,0.10
1994/07/22,1991.490,-,-,0.000,0.000,-,17.50
1994/07/23,1991.490,-,-,0.000,0.000,6.65,0.10
1994/07/24,1991.490,-,-,0.000,0.000,3.14,1.50
1994/07/25,1991.480,-,-,0.000,0.000,4.95,3.00
1994/07/26,1991.480,-,-,0.000,0.000,5.19,0.10
1994/07/27,1991.470,-,-,0.000,0.000,1.85,0.10
1994/07/28,1991.470,-,-,0.000,0.000,4.68,0.10
1994/07/29,1991.470,-,-,0.000,0.000,2.70,0.10
1994/07/30,1991.470,-,-,0.000,0.000,3.11,0.10
1994/07/31,1991.460,-,-,0.000,0.000,-,0.10
1994/08/01,1991.460,-,-,0.000,0.000,1.02,0.10
1994/08/02,1991.460,-,-,0.000,0.000,8.50,0.10
1994/08/03,1991.460,-,-,0.000,0.000,3.40,0.10
1994/08/04,-,-,-,-,-,-,0.10
1994/08/05,-,-,-,-,-,-,0.10
1994/08/06,1991.450,-,-,0.000,0.000,-,8.00
1994/08/07,1991.420,-,-,0.000,0.000,-,17.00
1994/08/08,1991.440,-,-,0.000,0.000,-,0.10
1994/08/09,1991.430,-,-,0.000,0.000,3.83,0.10
1994/08/10,1991.410,-,-,0.000,0.000,3.17,1.00
1994/08/11,1991.390,-,-,0.000,0.000,2.80,0.10
1994/08/12,1991.380,-,-,0.000,0.000,2.72,14.00
1994/08/13,1991.380,-,-,0.000,0.000,2.72,3.50
1994/08/14,1991.380,-,-,0.000,0.000,2.92,0.10
1994/08/15,1991.370,-,-,0.000,0.000,1.87,30.00
1994/08/16,1991.450,-,-,0.000,0.000,6.30,0.10
1994/08/17,1991.470,-,-,0.000,0.000,2.30,0.10
1994/08/18,1991.480,-,-,0.000,0.000,3.96,56.00
1994/08/19,1991.490,-,-,0.000,0.000,3.20,0.10
1994/08/20,1991.510,-,-,0.000,0.000,-,0.10
1994/08/21,1991.510,-,-,0.000,0.000,-,0.10
1994/08/22,1991.510,-,-,0.000,0.000,4.43,0.10
1994/08/23,1991.510,-,-,0.000,0.000,4.10,14.50
1994/08/24,1991.560,-,-,0.000,0.000,4.78,3.60
1994/08/25,1991.560,-,-,0.000,0.000,3.72,5.50
1994/08/26,1991.560,-,-,0.000,0.000,3.58,1.50
1994/08/27,1991.560,-,-,0.000,0.000,3.40,8.00
1994/08/28,1991.570,-,-,0.000,0.000,4.70,9.50
1994/08/29,1991.570,-,-,0.000,0.000,3.80,0.00
1994/08/30,1991.570,-,-,0.000,0.000,4.15,1.00
1994/08/31,1991.560,-,-,0.000,0.000,2.90,0.00
1994/09/01,1991.560,-,-,0.000,0.000,4.30,10.00
1994/09/02,1991.550,-,-,0.000,0.000,2.70,8.00
1994/09/03,1991.610,-,-,0.000,0.000,-,7.50
1994/09/04,1991.630,-,-,0.000,0.000,-,5.00
1994/09/05,1991.630,-,-,0.000,0.000,4.90,0.00
1994/09/06,1991.630,-,-,0.000,0.000,4.30,14.00
1994/09/07,1991.630,-,-,0.000,0.000,2.60,2.50
1994/09/08,1991.630,-,-,0.000,0.000,3.40,4.50
1994/09/09,1991.650,-,-,0.000,0.000,3.55,2.00
1994/09/10,1991.650,-,-,0.000,0.000,3.45,3.00
1994/09/11,1991.650,-,-,0.000,0.000,8.15,4.00
1994/09/12,1992.250,-,-,0.000,0.000,5.65,10.70
1994/09/13,1991.860,-,-,0.000,0.000,4.05,0.10
1994/09/14,1991.860,-,-,0.000,0.000,4.70,10.00
1994/09/15,1991.880,-,-,0.000,0.000,3.49,0.10
1994/09/16,1991.860,-,-,0.000,0.000,-,9.00
1994/09/17,1991.970,-,-,0.000,0.000,3.50,26.50
1994/09/18,1992.110,-,-,0.000,0.000,5.75,3.00
1994/09/19,1992.230,-,-,0.000,0.000,3.05,0.10
1994/09/20,1992.360,-,-,0.000,0.000,3.05,0.10
1994/09/21,1992.380,-,-,0.000,0.000,3.99,0.10
1994/09/22,1992.380,-,-,0.000,0.000,3.95,0.10
1994/09/23,1992.380,-,-,0.000,0.000,3.15,20.50
1994/09/24,1992.390,-,-,0.000,0.000,5.25,15.00
1994/09/25,1992.390,-,-,0.000,0.000,5.05,0.10
1994/09/26,1992.380,-,-,0.000,0.000,3.50,0.10
1994/09/27,1992.380,-,-,0.000,0.000,3.50,0.10
1994/09/28,1992.370,-,-,0.000,0.000,4.30,0.10
1994/09/29,1992.370,-,-,0.000,0.000,3.80,0.10
1994/09/30,1992.370,-,-,0.000,0.000,-,5.60
1994/10/01,1992.360,-,-,0.000,0.000,4.10,2.00
1994/10/02,1992.360,-,-,0.000,0.000,4.20,0.00
1994/10/03,1992.350,-,-,0.000,0.000,3.10,0.00
1994/10/04,1992.350,-,-,0.000,0.000,3.30,0.10
1994/10/05,1992.340,-,-,0.000,0.000,3.35,0.10
1994/10/06,1992.340,-,-,0.000,0.000,4.05,0.00
1994/10/07,1992.340,-,-,0.000,0.000,-,0.00
1994/10/08,1992.330,-,-,0.000,0.000,-,0.00
1994/10/09,1992.330,-,-,0.000,0.000,-,5.00
1994/10/10,1992.350,-,-,0.000,0.000,-,4.00
1994/10/11,1992.350,-,-,0.000,0.000,-,3.50
1994/10/12,1992.350,-,-,0.000,0.000,-,2.00
1994/10/13,1992.410,-,-,0.000,0.000,-,0.00
1994/10/14,1992.410,-,-,0.000,0.000,-,0.00
1994/10/15,1992.430,-,-,0.000,0.000,-,6.00
1994/10/16,1992.430,-,-,0.000,0.000,-,0.00
1994/10/17,1992.450,-,-,0.000,0.000,-,0.00
1994/10/18,1992.460,-,-,0.000,0.000,5.20,0.00
1994/10/19,1992.500,-,-,0.000,0.000,5.20,1.00
1994/10/20,1992.460,-,-,0.000,0.000,5.45,0.00
1994/10/21,1992.460,-,-,0.000,0.000,4.30,0.00
1994/10/22,1992.450,-,-,0.000,0.000,4.10,0.00
1994/10/23,1992.450,-,-,0.000,0.000,3.80,0.00
1994/10/24,1992.440,-,-,0.000,0.000,4.15,0.00
1994/10/25,1992.440,-,-,0.000,0.000,4.05,0.00
1994/10/26,1992.430,-,-,0.000,0.000,4.05,2.00
1994/10/27,1992.430,-,-,0.000,0.000,4.25,0.00
1994/10/28,1992.430,-,-,0.000,0.000,4.60,2.00
1994/10/29,1992.430,-,-,0.000,0.000,3.75,0.00
1994/10/30,1992.430,-,-,0.000,0.000,4.25,0.00
1994/10/31,1992.420,-,-,0.000,0.000,4.15,0.00
1994/11/01,1992.420,-,-,0.000,0.000,3.45,3.00
1994/11/02,1992.460,-,-,0.000,0.000,5.50,2.00
1994/11/03,1992.470,-,-,0.000,0.000,4.95,0.10
1994/11/04,1992.470,-,-,0.000,0.000,5.05,0.10
1994/11/05,1992.460,-,-,0.000,0.000,-,0.10
1994/11/06,1992.460,-,-,0.000,0.000,-,0.10
1994/11/07,1992.460,-,-,0.000,0.000,-,1.50
1994/11/08,1992.450,-,-,0.000,0.000,5.75,0.10
1994/11/09,1992.450,-,-,0.000,0.000,4.20,0.10
1994/11/10,1992.450,-,-,0.000,0.000,4.05,0.10
1994/11/11,-,-,-,-,-,-,0.10
1994/11/12,1992.460,-,-,0.000,0.000,3.05,0.10
1994/11/13,1992.480,-,-,0.000,0.000,4.15,0.10
1994/11/14,1992.510,-,-,0.000,0.000,4.45,0.10
1994/11/15,1992.520,-,-,0.000,0.000,4.15,0.10
1994/11/16,1992.520,-,-,0.000,0.000,4.15,0.10
1994/11/17,1992.510,-,-,0.000,0.000,4.04,0.10
1994/11/18,1992.510,-,-,0.000,0.000,5.06,0.10
1994/11/19,1992.500,-,-,0.000,0.000,-,0.10
1994/11/20,1992.500,-,-,0.000,0.000,-,0.10
1994/11/21,1992.490,-,-,0.000,0.000,-,0.10
1994/11/22,1992.490,-,-,0.000,0.000,3.92,0.00
1994/11/23,1992.490,-,-,0.000,0.000,4.36,0.00
1994/11/24,1992.480,-,-,0.000,0.000,4.05,0.10
1994/11/25,1992.480,-,-,0.000,0.000,4.15,0.10
1994/11/26,1992.470,-,-,0.000,0.000,4.50,0.10
1994/11/27,1992.470,-,-,0.000,0.000,5.20,0.10
1994/11/28,1992.470,-,-,0.000,0.000,4.15,0.10
1994/11/29,1992.460,-,-,0.000,0.000,-,0.10
1994/11/30,1992.460,-,-,0.000,0.000,-,4.00
1994/12/01,1992.460,-,-,0.000,0.000,4.36,2.00
1994/12/02,1992.450,-,-,0.000,0.000,4.25,1.00
1994/12/03,1992.450,-,-,0.000,0.000,4.25,0.10
1994/12/04,1992.430,-,-,0.000,0.000,4.15,0.10
1994/12/05,1992.450,-,-,0.000,0.000,4.40,0.10
1994/12/06,1992.440,-,-,0.000,0.000,4.25,0.10
1994/12/07,1992.440,-,-,0.000,0.000,4.25,0.00
1994/12/08,1992.440,-,-,-,-,-,0.00
1994/12/09,1992.430,-,-,9.000,0.000,5.95,0.10
1994/12/10,1992.430,-,-,0.000,0.000,-,0.10
1994/12/11,1992.420,-,-,0.000,0.000,-,0.10
1994/12/12,1992.420,-,-,0.000,0.000,-,0.10
1994/12/13,1992.420,-,-,0.000,0.000,-,0.10
1994/12/14,1992.420,-,-,0.000,0.000,-,0.10
1994/12/15,1992.410,-,-,0.000,0.000,4.20,0.10
1994/12/16,1992.410,-,-,0.000,0.000,4.05,0.00
1994/12/17,1992.400,-,-,0.610,0.000,4.20,0.00
1994/12/18,1992.400,-,-,0.610,0.000,4.55,0.00
1994/12/19,1992.400,-,-,0.610,0.000,4.25,0.00
1994/12/20,1992.400,-,-,0.610,0.000,4.05,0.00
1994/12/21,1992.400,-,-,0.600,0.000,-,0.10
1994/12/22,1992.400,-,-,0.600,0.000,-,0.10
1994/12/23,1992.390,-,-,0.000,0.000,-,0.10
1994/12/24,1992.390,-,-,0.000,0.000,-,0.10
1994/12/25,1992.380,-,-,0.000,0.000,-,0.10
1994/12/26,1992.380,-,-,0.000,0.000,-,0.00
1994/12/27,1992.370,-,-,0.000,0.000,4.05,0.10
1994/12/28,1992.370,-,-,0.000,0.000,3.80,0.00
1994/12/29,1992.370,-,-,0.000,0.000,3.85,0.00
1994/12/30,1992.360,-,-,0.000,0.000,4.10,0.00
1994/12/31,1992.360,-,-,0.000,0.000,4.23,0.00
1995/01/01,1992.350,-,-,0.000,0.000,-,0.00
1995/01/02,1992.350,8.470,-,0.000,0.000,-,0.00
1995/01/03,1992.350,8.470,-,0.000,0.000,-,0.00
1995/01/04,1992.350,8.470,-,0.000,0.000,-,0.00
1995/01/05,1992.340,8.390,-,0.000,0.000,-,0.00
1995/01/06,1992.330,8.310,-,0.000,0.000,-,0.00
1995/01/07,1992.320,8.310,-,0.000,0.000,-,0.00
1995/01/08,1992.320,8.240,-,0.000,0.000,-,0.00
1995/01/09,1992.320,8.240,-,0.000,0.000,-,0.00
1995/01/10,1992.310,8.160,-,0.000,0.000,-,0.00
1995/01/11,1992.300,8.120,-,0.000,0.000,-,0.00
1995/01/12,1992.290,8.080,-,0.000,0.000,-,0.00
1995/01/13,1992.290,8.070,-,0.000,0.000,-,0.00
1995/01/14,1992.280,8.030,-,0.000,0.000,-,0.00
1995/01/15,1992.280,8.030,-,0.000,0.000,-,0.00
1995/01/16,1992.270,7.980,-,0.000,0.000,-,0.00
1995/01/17,1992.260,7.940,-,0.000,0.000,-,0.00
1995/01/18,1992.250,7.890,-,0.000,0.000,-,0.00
1995/01/19,1992.250,7.890,-,0.000,0.000,-,0.00
1995/01/20,1992.240,7.850,-,0.000,0.000,-,0.00
1995/01/21,1992.220,7.760,-,0.000,0.000,-,0.00
1995/01/22,1992.210,7.710,-,0.000,0.000,-,0.00
1995/01/23,1992.210,7.710,-,0.000,0.000,-,0.00
1995/01/24,1992.200,7.670,-,0.000,0.000,-,0.00
1995/01/25,1992.200,7.670,-,0.000,0.000,-,0.00
1995/01/26,1992.200,7.670,-,0.000,0.000,-,0.00
1995/01/27,1992.200,7.670,-,0.000,0.000,-,0.00
1995/01/28,1992.190,7.620,-,0.000,0.000,-,0.00
1995/01/29,1992.190,7.620,-,0.000,0.000,-,0.00
1995/01/30,1992.190,7.620,-,0.000,0.000,-,0.00
1995/01/31,1992.190,7.620,-,0.000,0.000,-,0.00
1995/02/01,1992.190,7.580,-,0.000,0.000,-,0.00
1995/02/02,1992.180,7.580,-,0.000,0.000,-,0.00
1995/02/03,1992.170,7.530,-,0.000,0.000,-,0.00
1995/02/04,1992.170,7.530,-,0.000,0.000,-,0.00
1995/02/05,1992.160,7.490,-,0.000,0.000,-,0.00
1995/02/06,1992.160,7.490,-,0.000,0.000,-,0.00
1995/02/07,1992.160,7.490,-,0.000,0.000,-,0.00
1995/02/08,1992.160,7.490,-,0.000,0.000,-,0.00
1995/02/09,1992.150,7.440,-,0.000,0.000,-,0.00
1995/02/10,1992.150,7.440,-,0.000,0.000,-,0.00
1995/02/11,1992.150,7.440,-,0.000,0.000,-,0.00
1995/02/12,1992.140,7.400,-,0.000,0.000,-,0.00
1995/02/13,1992.130,7.350,-,0.000,0.000,-,0.00
1995/02/14,1992.120,7.310,-,0.000,0.000,3.86,0.00
1995/02/15,1992.100,7.220,-,0.000,0.000,-,0.00
1995/02/16,1992.080,7.130,-,0.000,0.000,5.14,0.00
1995/02/17,1992.060,7.040,-,0.000,0.000,-,0.00
1995/02/18,1992.040,6.950,-,0.000,0.000,4.73,0.00
1995/02/19,1992.020,6.860,-,0.000,0.000,4.73,0.00
1995/02/20,1992.000,6.770,-,0.000,0.000,4.72,0.00
1995/02/21,1991.980,6.680,-,0.000,0.000,4.80,0.00
1995/02/22,1991.960,6.590,-,0.000,0.000,4.50,0.00
1995/02/23,1991.940,6.500,-,0.000,0.000,3.01,0.00
1995/02/24,1991.920,6.410,-,0.000,0.000,3.58,0.00
1995/02/25,1991.900,6.320,-,0.000,0.000,3.61,1.00
1995/02/26,1991.880,6.230,-,0.000,0.000,4.89,1.20
1995/02/27,1991.860,6.140,-,0.000,0.000,4.61,0.00
1995/02/28,1991.840,6.050,-,0.000,0.000,5.25,0.00
1995/03/01,1991.840,5.960,-,0.000,0.000,-,0.00
1995/03/02,1991.800,5.870,-,0.000,0.000,2.78,0.00
1995/03/03,1991.780,5.780,-,0.000,0.000,5.20,0.00
1995/03/04,1991.760,5.690,-,0.000,0.000,3.96,0.00
1995/03/05,1991.740,5.600,-,0.000,0.000,4.21,0.00
1995/03/06,1991.720,5.510,-,0.000,0.000,5.20,0.00
1995/03/07,1991.700,5.420,-,0.000,0.000,4.68,0.00
1995/03/08,1991.680,5.330,-,0.000,0.000,5.71,0.00
1995/03/09,1991.660,5.240,-,0.000,0.000,5.45,0.00
1995/03/10,1991.640,5.180,-,0.000,0.000,4.16,0.00
1995/03/11,1991.620,5.070,-,0.000,0.000,5.18,0.00
1995/03/12,1991.600,4.980,-,0.000,0.000,4.86,0.00
1995/03/13,1991.580,4.890,-,0.000,0.000,5.28,0.00
1995/03/14,1991.560,4.790,-,0.000,0.000,5.11,0.00
1995/03/15,1991.540,4.400,-,0.000,0.000,5.09,0.00
1995/03/16,1991.520,4.610,-,0.000,0.000,4.76,0.00
1995/03/17,1991.500,4.520,-,0.000,0.000,5.86,0.00
1995/03/18,1991.480,4.440,-,0.000,0.000,5.35,0.00
1995/03/19,1991.460,4.350,-,0.000,0.000,4.79,0.00
1995/03/20,1991.440,4.260,-,0.000,0.000,5.82,0.00
1995/03/21,1991.400,4.080,-,0.000,0.000,5.98,0.00
1995/03/22,1991.400,4.080,-,0.000,0.000,5.98,0.00
1995/03/23,1991.380,3.990,-,0.000,0.000,5.07,0.00
1995/03/24,1991.360,3.900,-,0.000,0.000,5.32,0.00
1995/03/25,1991.340,3.810,-,0.000,0.000,5.92,0.00
1995/03/26,1991.310,3.670,-,0.000,0.000,5.04,0.00
1995/03/27,1991.280,3.600,-,0.000,0.000,6.84,0.00
1995/03/28,1991.250,3.530,-,0.000,0.000,7.25,0.00
1995/03/29,1991.230,3.480,-,0.000,0.000,6.77,0.00
1995/03/30,1991.200,3.410,-,0.000,0.000,-,0.00
1995/03/31,1991.170,3.340,-,0.000,0.000,-,0.00
1995/04/01,1991.150,3.290,-,0.000,0.000,-,0.00
1995/04/02,1991.120,3.220,-,0.000,0.000,-,0.00
1995/04/03,1991.100,3.180,-,0.000,0.000,-,0.00
1995/04/04,1991.060,3.080,-,0.000,0.000,-,0.00
1995/04/05,1991.020,2.960,-,0.000,0.000,-,0.00
1995/04/06,1990.990,2.910,-,0.000,0.000,-,0.00
1995/04/07,1990.950,2.810,-,0.000,0.000,-,0.00
1995/04/08,1990.910,2.720,-,0.000,0.000,-,0.00
1995/04/09,1990.870,2.620,-,0.000,0.000,-,0.00
1995/04/10,1990.840,2.550,-,0.000,0.000,-,0.00
1995/04/11,1990.810,2.480,-,0.000,0.000,-,0.00
1995/04/12,1990.730,2.420,-,0.000,0.000,-,0.00
1995/04/13,1990.750,2.340,-,0.000,0.000,-,0.00
1995/04/14,1990.720,2.270,-,0.000,0.000,-,0.00
1995/04/15,1990.680,2.170,-,0.000,0.000,-,0.00
1995/04/16,1990.640,2.080,-,0.000,0.000,-,0.00
1995/04/17,1990.600,1.980,-,0.000,0.000,-,0.00
1995/04/18,1990.600,1.980,-,0.000,0.000,-,0.00
1995/04/19,1990.590,1.960,-,0.000,0.000,-,0.00
1995/04/20,1990.580,1.940,-,0.000,0.000,-,0.00
1995/04/21,1990.570,1.910,-,0.000,0.000,-,0.00
1995/04/22,1990.560,1.890,-,0.000,0.000,-,0.00
1995/04/23,1990.550,1.860,-,0.000,0.000,-,0.00
1995/04/24,1990.550,1.860,-,0.000,0.000,-,0.00
1995/04/25,1990.540,1.840,-,0.000,0.000,-,0.00
1995/04/26,1990.530,1.820,-,0.000,0.000,6.40,0.00
1995/04/27,1990.520,1.800,-,0.000,0.000,-,0.00
1995/04/28,1990.520,1.790,-,0.000,0.000,-,0.00
1995/04/29,1990.510,1.770,-,0.000,0.000,-,0.00
1995/04/30,1990.500,1.750,-,0.000,0.000,-,0.00
1995/05/01,1990.490,1.720,-,0.000,0.000,-,0.00
1995/05/02,1990.480,1.700,-,0.000,0.000,-,0.00
1995/05/03,1990.460,1.600,-,0.000,0.000,-,0.00
1995/05/04,1990.440,1.610,-,0.000,0.000,-,0.00
1995/05/05,1990.420,1.560,-,0.000,0.000,-,0.00
1995/05/06,1990.400,1.510,-,0.000,0.000,-,0.00
1995/05/07,1990.380,1.470,-,0.000,0.000,-,0.00
1995/05/08,1990.360,1.420,-,0.000,0.000,-,0.00
1995/05/09,1990.330,1.350,-,0.000,0.000,-,0.00
1995/05/10,1990.310,1.300,-,0.000,0.000,-,0.00
1995/05/11,1990.290,1.280,-,0.000,0.000,-,0.00
1995/05/12,1990.250,1.240,-,0.000,0.000,-,0.00
1995/05/13,1990.210,1.200,-,0.000,0.000,-,0.00
1995/05/14,1990.180,1.170,-,0.000,0.000,-,0.00
1995/05/15,1990.150,1.140,-,0.000,0.000,-,0.00
1995/05/16,1990.110,1.100,-,0.000,0.000,-,0.00
1995/05/17,1990.070,1.060,-,0.000,0.000,-,0.00
1995/05/18,1990.030,1.020,-,0.000,0.000,-,0.00
1995/05/19,1989.990,0.980,-,0.000,0.000,-,0.00
1995/05/20,1989.950,0.940,-,0.000,0.000,-,0.00
1995/05/21,1989.910,0.900,-,0.000,0.000,-,0.00